Regional Weather Roundup
Issued by NWS Columbia, SC

Home | Current Version | Previous Version | Text Only | Print | Product List | Glossary On
Versions: 1 2 3 4 5 6 7 8 9 10 11 12 13 14 15 16 17 18 19 20 21 22 23 24 25 26 27 28 29 30 31 32 33 34 35 36 37 38 39 40 41 42 43 44 45 46 47 48 49 50
000
ASUS42 KCAE 261510
RWRCAE
REGIONAL WEATHER ROUNDUP
NATIONAL WEATHER SERVICE COLUMBIA SC
1000 AM EST MON JAN 26 2015

NOTE: "FAIR" INDICATES FEW OR NO CLOUDS BELOW 12,000 FEET WITH NO
SIGNIFICANT WEATHER AND/OR OBSTRUCTIONS TO VISIBILITY.

NOT ALL STATIONS ARE QUALITY CONTROLLED BY THE NATIONAL
WEATHER SERVICE. USE DATA WITH CAUTION...ESPECIALLY
DEWPOINT OBSERVATIONS.

SCZ001>056-GAZ040-063>065-077-261600-
...UPSTATE SOUTH CAROLINA...

CITY           SKY/WX    TMP DP  RH WIND       PRES   REMARKS
ANDERSON       CLOUDY    47  37  68 W17G24    29.70R
LIBERTY        MOSUNNY   47  32  56 MISG      29.68R
SPARTANBURG    MOSUNNY   52  37  58 NW8       29.66R
CLEMSON        PTSUNNY   50  35  56 W16G22    29.70R
GREENVILLE     PTSUNNY   46  37  71 NW7       29.68R
GREENWOOD      MOSUNNY   49  39  68 W12G22    29.69S
GREER          CLOUDY    48  38  68 VRB5      29.65S
ROCK HILL      CLOUDY    47  37  68 VRB5      29.65F
CHESTER        PTSUNNY   48  37  66 W7        29.66S
LAURENS        MOSUNNY   46  45  93 W15       29.67S


...CENTRAL SOUTH CAROLINA...

CITY           SKY/WX    TMP DP  RH WIND       PRES   REMARKS
COLUMBIA APT   MOSUNNY   52  41  66 W15       29.67F
COLUMBIA OWENS SUNNY     50  40  68 W12       29.68F
DARLINGTON     MOSUNNY   48  39  71 W8        29.67S
FLORENCE       SUNNY     51  40  65 W13       29.66F
MCENTIRE ANGB  MOSUNNY   49  41  72 W9        29.67F
ORANGEBURG     SUNNY     50  40  68 W13       29.69F
SUMTER SHAW    SUNNY     49  41  74 W8        29.65F
NEWBERRY       SUNNY     46  41  81 W13G22    29.70R
AIKEN          FAIR      50  41  71 W18G24    29.72S
BARNWELL       FAIR      52  43  71 SW13G18   29.71S
CAMDEN         FAIR      46  39  76 W7        29.67F
LANCASTER      MOSUNNY   46  41  81 W10       29.66S
WINNSBORO      SUNNY     46  41  81 W9G17     29.66S


...EASTERN AND COASTAL SOUTH CAROLINA...

CITY           SKY/WX    TMP DP  RH WIND       PRES   REMARKS
MYRTLE BEACH   SUNNY     54  43  66 W14       29.69S
N MYRTLE BCH   MOSUNNY   51  44  77 W10       29.66S
CONWAY         FAIR      52  43  71 W7G17     29.67S
MARION         FAIR      50  41  71 W12       29.66F
HARTSVILLE     FAIR      50  37  62 NW5       29.66F
FLORENCE       SUNNY     51  40  65 W13       29.66F
DARLINGTON     MOSUNNY   48  39  71 W8        29.67S
CHARLESTON APT MOSUNNY   53  42  66 W13       29.70F
MOUNT PLEASANT FAIR     N/A N/A N/A W10       29.69S
WALTERBORO     SUNNY     52  45  76 W13G20    29.72S
BEAUFORT       MOSUNNY   52  43  71 W16G22    29.73S


...EASTERN GEORGIA...

CITY           SKY/WX    TMP DP  RH WIND       PRES   REMARKS
AUGUSTA BUSH F SUNNY     51  39  63 W16       29.71S
AUGUSTA DANIEL SUNNY     51  39  63 W12G22    29.72R
THOMSON        MOSUNNY   51  44  76 W15       29.77R
WASHINGTON     FAIR      54  45  71 W18G26    29.73R
CLAXTON        FAIR      52  43  71 W17G23    29.79R
SYLVANIA       SUNNY     50  43  75 NW16      29.75F
STATESBORO     MOSUNNY   51  42  71 W20       29.77S
SAVANNAH       MOSUNNY   52  39  61 W16G26    29.76S


...SOUTHERN NORTH CAROLINA...

CITY           SKY/WX    TMP DP  RH WIND       PRES   REMARKS
CHARLOTTE      PTSUNNY   44  34  67 W5        29.66S
MONROE         PTSUNNY   48  37  65 W7        29.64S
WADESBORO      PTSUNNY   44  40  86 CALM      29.65F
ROCKINGHAM       N/A     44  40  88 W5        29.66S
RUTHERFORDTON  MOSUNNY   43  34  70 CALM      29.67R
ASHEVILLE      LGT RAIN  38  34  85 N8        29.69R WCI  32

$$


USA.gov is the U.S. government's official web portal to all federal, state and local government web resources and services.